Location: Cherry Springs State Park
(41.6616°N, 77.8240°W)
Time: 16:18:51
(UTC-05:00)

Daily predictions for brighter satellites

Satellite Brightness Start Highest point End
(mag) Time Altitude Azimuth Time Altitude Azimuth Time Altitude Azimuth
Cosmos 2242 Rocket 3.9 17:09:08 10° S 17:13:33 51° E 17:17:58 10° NNE
Cosmos 1802 Rocket 4.2 17:07:27 10° S 17:13:37 82° W 17:19:47 10° N
Cosmos 1733 Rocket 3.4 17:11:28 10° N 17:15:45 46° ENE 17:20:01 10° SSE
Cosmos 1570 Rocket 4.2 17:10:48 10° NNW 17:16:11 82° WSW 17:21:30 10° SSE
Lacrosse 5 3.3 17:13:31 10° W 17:17:58 30° NNW 17:22:26 10° NNE
Cosmos 2082 Rocket 3.6 17:14:24 10° N 17:17:58 17° NE 17:21:31 10° E
USA 161 3.2 17:20:35 10° NNW 17:22:07 21° WNW 17:23:43 10° SW
CSL-04 Rocket 3.6 17:18:18 10° SSE 17:23:34 75° ENE 17:28:55 10° N
Cosmos 1862 Rocket 3.7 17:21:18 10° S 17:25:35 52° E 17:29:55 10° NNE
Cosmos 1816 Rocket 4.5 17:25:14 10° N 17:31:20 65° E 17:37:25 10° SSE
GENESIS II 4.4 17:29:31 10° NNW 17:33:19 48° NE 17:37:07 10° SE
Meteor 2-10 Rocket 4.1 17:28:50 10° SSW 17:33:58 63° WNW 17:39:21 10° N
Cosmos 1340 2.9 17:31:31 10° SSW 17:35:17 74° W 17:39:04 10° N
Cosmos 1725 Rocket 4.1 17:31:43 10° S 17:38:00 88° W 17:44:19 10° N
CENTAUR R/B 2.8 17:33:01 10° SW 17:39:02 72° NW 17:45:58 10° NNE
Cosmos 371 Rocket 4.0 17:34:58 10° NNW 17:39:41 57° WSW 17:44:22 10° S
Cosmos 1461 4.4 17:37:37 10° NW 17:42:07 48° WSW 17:46:40 10° S
Cosmos 1437 2.6 17:41:04 10° S 17:44:14 87° ESE 17:47:26 10° N
Cosmos 304 Rocket 3.9 17:40:06 10° N 17:44:49 53° ENE 17:49:30 10° SE
Cosmos 468 Rocket 4.1 17:42:06 10° NNW 17:47:18 79° WSW 17:52:25 10° SSE
Meteor 1-14 Rocket 4.2 17:42:09 10° N 17:47:47 60° ENE 17:53:17 10° SSE
Okean 1-7 4.1 17:45:31 10° SE 17:49:02 24° E 17:52:08 12° NE
COSMOS 2406 3.8 17:43:54 10° NNW 17:49:35 63° WSW 17:55:11 10° S
ERBS 2.2 17:46:36 10° NW 17:49:59 67° NE 17:53:23 10° SE
ERS-2 2.4 17:46:33 10° SE 17:50:03 43° ENE 17:53:33 10° N
IRS-1A Rocket 4.3 17:44:31 10° SSE 17:50:19 72° ENE 17:56:03 10° N
Cosmos 1844 Rocket 3.5 17:45:49 10° SW 17:51:17 51° WNW 17:56:48 10° NNE
CZ-2C R/B 3.6 17:46:59 10° NNE 17:51:28 73° ESE 17:55:59 10° S
Tsikada Rocket 4.2 17:46:37 10° N 17:52:46 76° W 17:58:54 10° S
COSMOS 2455 2.9 17:48:58 10° SSW 17:54:58 83° WNW 18:01:03 10° NNE
CZ-4 R/B 4.4 17:52:05 10° SSE 17:56:10 60° ENE 18:00:17 10° N
Cosmos 1782 Rocket 4.2 17:52:43 10° NNE 17:56:36 31° ENE 18:00:28 10° SE
Timation 1 Rocket 4.3 17:53:15 10° SSW 17:59:14 87° ESE 18:05:18 10° NNE
COSMO-SKYMED 1 2.8 17:56:48 10° NNE 18:01:02 49° E 18:05:14 10° S
YAOGAN 1 2.5 17:58:27 10° SSE 18:02:46 79° ENE 18:07:06 10° N
BREEZE-M R/B 2.5 18:02:25 10° NW 18:05:05 55° NNE 18:07:11 24° E
CZ-4 R/B 1.8 18:02:59 10° S 18:06:50 61° W 18:10:39 10° NNW
Cosmos 44 4.4 18:04:00 10° N 18:07:39 22° NE 18:08:01 22° NE
Cosmos 1763 Rocket 3.5 18:03:54 10° NNW 18:09:09 87° WSW 18:14:17 10° SSE
USA 116 4.2 18:05:24 10° N 18:10:01 72° WNW 18:14:04 10° SSW
Meteor 1-26 Rocket 4.5 18:04:41 10° SSW 18:10:16 72° WNW 18:15:49 10° N
Cosmos 2221 Rocket 4.0 18:06:37 10° SSE 18:10:40 37° E 18:13:08 20° NE
Centaur D AC-28 4.3 18:07:35 10° SSW 18:11:59 28° SSE 18:21:44 14° ESE
FENGYUN 3A 3.8 18:08:31 10° SE 18:13:43 50° ENE 18:18:56 10° N
Cosmos 2297 4.2 18:10:51 10° S 18:16:06 39° ESE 18:18:47 25° NE
MOS 1 4.2 18:11:06 10° SSE 18:16:47 78° ENE 18:22:31 10° NNW
ALOS 2.3 18:12:45 10° SSE 18:17:17 52° ENE 18:21:50 10° N
Cosmos 1814 Rocket 4.5 18:12:45 10° NNW 18:18:04 66° WSW 18:23:21 10° S
Cosmos 1833 Rocket 2.9 18:13:38 10° NNW 18:19:01 44° ENE 18:23:09 16° SE
Cosmos 2278 Rocket 2.3 18:17:22 10° SSW 18:23:02 77° WNW 18:28:39 10° NNE
SL-27 R/B 2.1 18:20:23 10° NNW 18:23:42 66° ENE 18:25:00 33° SE
Cosmos 1503 Rocket 4.1 18:19:06 10° S 18:24:12 50° ESE 18:26:49 27° NE
Cosmos 1703 Rocket 3.5 18:20:19 10° S 18:24:48 87° E 18:29:17 10° N
Centaur D AC-29 4.3 18:23:50 10° SW 18:25:35 11° SW 18:26:58 10° SSW
Cosmos 1633 2.4 18:27:27 10° N 18:31:07 86° E 18:34:47 10° S
Cosmos 1464 Rocket 3.9 18:26:11 10° S 18:32:14 67° E 18:38:19 10° NNE
Okean 2 Rocket 3.2 18:28:19 10° N 18:32:45 50° E 18:37:08 10° SSE
DMSP B5D1-3 4.4 18:31:12 12° NNE 18:36:04 69° ESE 18:41:12 10° S
Cosmos 836 Rocket 4.4 18:33:55 10° NNW 18:39:09 66° ENE 18:43:38 14° SSE
USA 234 3.2 18:36:48 27° NE 18:40:42 88° NW 18:47:15 10° SW
Cosmos 540 Rocket 3.3 18:36:23 10° NNW 18:41:35 71° ENE 18:46:03 14° SSE
Cosmos 841 Rocket 4.1 18:37:36 10° NNW 18:42:47 58° WSW 18:47:56 10° S
Cosmos 1606 3.1 18:39:08 10° SSW 18:42:52 62° W 18:45:11 22° N
EO 1 Del DPAF 4.1 18:41:39 13° N 18:44:53 49° WNW 18:48:34 10° SSW
SKYMED 2 4.5 18:44:51 10° N 18:49:03 48° WNW 18:53:13 10° SSW
Meteor 2-6 Rocket 4.0 18:44:32 10° S 18:49:57 88° E 18:55:29 10° N
Cosmos 1782 3.5 18:46:47 10° SSW 18:50:43 53° W 18:53:34 18° N
SPOT 3 Rocket 4.1 18:49:56 10° S 18:55:04 59° WSW 19:00:14 10° NNW
BREEZE-M DEB (TANK) 4.1 18:55:36 10° WSW 18:56:40 27° W 18:56:40 27° W
Cosmos 1354 Rocket 4.1 18:56:12 10° SSW 19:01:29 76° WNW 19:03:33 38° N
CZ-4C R/B 3.1 18:54:56 10° NNW 19:01:43 46° NE 19:02:17 45° ENE
Lacrosse 5 4.0 18:59:38 10° NW 19:02:25 15° N 19:03:04 14° N
Cosmos 2082 Rocket 2.1 18:57:07 10° NNW 19:02:50 85° WSW 19:05:55 28° SSE
FengYun 1-2 T 4.0 19:03:37 27° SSE 19:06:41 80° ENE 19:12:16 10° NNW
Cosmos 44 Rocket 4.2 19:07:16 10° NNW 19:10:24 38° N 19:10:24 38° N
Meteor 1-27 Rocket 3.7 19:07:56 10° S 19:13:50 88° ESE 19:15:39 48° N
Meteor 2-20 Rocket 4.2 19:11:14 10° N 19:17:23 79° E 19:17:33 78° ESE
Thor Agena Rocket 4.1 19:30:42 50° SW 19:30:42 50° SW 19:34:33 10° SSW
Nadezhda 4 Rocket 4.4 19:42:30 10° NNW 19:48:28 56° W 19:54:24 10° SSW
CZ-4C R/B 4.3 20:43:29 10° NW 20:47:31 33° WNW 20:47:31 33° WNW
